Location: Santa Barbara
(34.4500°N, 119.7700°W)
Time: 19:01:02
(UTC-07:00)

Cosmos 1892 Rocket - Visible Passes

Search period start: 01 July 2016 00:00
Search period end: 11 July 2016 00:00
Orbit: 606 x 634 km, 82.5° (Epoch: 30 June)

Date Brightness Start Highest point End Pass type
(mag) Time Alt. Az. Time Alt. Az. Time Alt. Az.
01 Jul 4.9 03:04:03 10° NNE 03:08:02 35° E 03:09:21 28° ESE visible
01 Jul 5.3 04:43:10 10° NW 04:45:33 15° W 04:46:30 14° W visible
02 Jul 3.6 03:21:27 10° N 03:25:48 73° E 03:26:25 61° SE visible
03 Jul 3.6 03:39:14 10° NNW 03:43:28 53° W 03:43:32 53° W visible
04 Jul 5.7 02:20:01 10° NNE 02:23:12 20° ENE 02:23:32 20° E visible
04 Jul 4.7 03:57:25 10° NNW 04:00:41 26° W 04:00:41 26° W visible
05 Jul 4.7 02:36:58 10° N 02:40:43 38° ENE 02:40:43 38° ENE visible
05 Jul 5.6 04:16:27 10° WNW 04:17:52 13° WNW 04:17:52 13° WNW visible
06 Jul 4.0 02:54:26 10° N 02:57:56 57° N 02:57:56 57° N visible
07 Jul 6.3 01:37:02 10° NE 01:38:02 11° ENE 01:38:02 11° ENE visible
07 Jul 4.5 03:12:14 10° NNW 03:15:11 36° NW 03:15:11 36° NW visible
08 Jul 5.8 01:52:51 10° NNE 01:55:18 20° ENE 01:55:18 20° ENE visible
08 Jul 5.3 03:30:31 10° NW 03:32:27 19° WNW 03:32:27 19° WNW visible
09 Jul 5.2 02:09:54 10° N 02:12:35 31° NE 02:12:35 31° NE visible
10 Jul 5.0 02:27:24 10° N 02:29:54 34° N 02:29:54 34° N visible
